[[{"header":{"parameterUnit":"m.s-1","parameterCategory":1,"la1":30.2991,"la2":30.254,"lo1":-89.0895,"lo2":-89.0444,"dy":0.0017,"dx":0.0017,"nx":28,"ny":28,"refTime":"2025-04-09T03:00:00:Z","depth":0,"parameterNumber":2,"parameterNumberName":"U-component_of_WINDS"},"data":[0,0,0,0,0,0,0,0,0,0,0,0,0,0,0,0,0,0,0,0,0,0,0,0,0,0,0,0,0,0,0,0,0,0,0,0,0,0,0,0,0,0,0,0,0,0,0,0,0,0,0,0,0,0,0,0,0,0,-1.1342,-1.1343,0,-1.1459,-1.146,-1.1462,-1.1433,-1.1431,-1.1429,-1.1427,-1.1551,-1.1557,-1.1562,0,0,0,0,0,0,0,0,0,0,0,0,0,-1.1096,-1.1101,-1.1341,-1.1343,-1.1344,-1.1459,-1.1461,-1.1462,-1.1434,-1.1431,-1.1428,-1.1426,-1.1549,-1.1556,-1.1562,0,0,0,0,0,0,0,0,0,0,0,0,0,-1.1207,-1.1102,-1.1341,-1.1344,-1.1345,-1.1459,-1.1461,-1.1463,-1.1434,-1.1431,-1.1428,-1.1424,-1.1547,-1.1555,-1.1563,-1.1682,0,0,-1.1588,-1.1592,0,0,0,0,0,0,0,0,-1.1201,-1.1216,-1.1342,-1.1344,-1.1346,-1.1428,-1.142,-1.1536,-1.1435,-1.1401,-1.1427,-1.1423,-1.1513,-1.1524,-1.1554,-1.1688,-1.1694,-1.1589,-1.1594,-1.1598,-1.16,0,0,0,0,0,0,0,-1.1193,-1.1211,-1.1388,-1.1344,-1.1346,-1.1341,-1.1353,-1.1442,-1.1475,-1.1403,-1.1402,-1.1416,-1.1514,-1.1546,-1.1556,-1.1695,-1.1589,-1.1596,-1.1601,-1.1604,-1.1934,-1.1938,0,0,0,0,0,0,-1.1184,-1.1205,-1.1384,-1.1392,-1.1263,-1.1348,-1.1361,-1.1405,-1.1474,-1.1481,-1.1419,-1.1414,-1.1534,-1.1547,-1.1561,-1.1706,-1.1597,-1.1605,-1.161,-1.193,-1.1935,-1.1939,0,0,0,0,0,0,-1.1178,-1.12,-1.138,-1.1298,-1.132,-1.1356,-1.1405,-1.1409,-1.1441,-1.1485,-1.1491,-1.1445,-1.1532,-1.1549,-1.1652,-1.171,-1.1609,-1.1616,-1.1926,-1.1932,-1.1937,-1.1996,0,0,0,0,0,0,-1.1172,-1.1198,-1.1243,-1.1299,-1.1325,-1.1468,-1.1409,-1.1414,-1.1455,-1.145,-1.1512,-1.1519,-1.153,-1.164,-1.166,-1.1719,-1.1623,-1.1921,-1.1929,-1.1935,-1.1989,-1.2003,-1.2015,0,0,0,0,0,-1.1163,-1.1256,-1.1245,-1.1267,-1.1381,-1.1472,-1.1487,-1.1497,-1.146,-1.1506,-1.1534,-1.1517,-1.1699,-1.1651,-1.1673,-1.1735,-1.1917,-1.1926,-1.1935,-1.1983,-1.2,-1.2015,0,0,0,0,0,0,-1.1207,-1.1263,-1.1252,-1.1366,-1.1414,-1.1467,-1.1525,-1.1514,-1.1575,-1.1568,-1.1579,-1.1593,-1.1699,-1.1727,-1.1672,-1.1855,-1.1803,-1.1817,-1.1833,-1.1849,-1.1862,-1.1854,-1.1629,0,0,0,0,0,-1.123,-1.1297,-1.1343,-1.1438,-1.1463,-1.149,-1.153,-1.1533,-1.1584,-1.1605,-1.164,-1.1692,-1.1761,-1.1806,-1.1872,-1.1992,-1.2006,-1.2046,-1.2059,-1.2069,-1.2082,-1.2149,-1.2167,-1.1968,-1.1968,-1.1968,0,0,-1.1278,-1.1317,-1.1359,-1.1448,-1.1486,-1.1557,-1.1507,-1.1585,-1.1638,-1.1617,-1.1716,-1.1744,-1.1802,-1.1915,-1.1966,-1.1942,-1.2139,-1.208,-1.2088,-1.2095,-1.2159,-1.2178,-1.2195,-1.1974,-1.1973,-1.1972,0,0,-1.1402,-1.1437,-1.1521,-1.156,-1.1617,-1.1634,-1.1654,-1.1709,-1.1726,-1.1826,-1.1812,-1.1875,-1.1994,-1.2036,-1.2073,-1.2212,-1.22,-1.2233,-1.2302,-1.2367,-1.2383,-1.2397,-1.2448,-1.2466,-1.2245,-1.2245,-1.2245,0,-1.1455,-1.156,-1.1566,-1.1645,-1.1685,-1.1668,-1.1754,-1.1791,-1.1868,-1.1897,-1.1867,-1.2016,-1.2053,-1.2176,-1.221,-1.224,-1.2265,-1.2227,-1.2379,-1.2394,-1.2407,-1.2456,-1.2475,-1.2249,-1.2249,-1.2248,-1.2248,0,-1.1624,-1.1697,-1.1758,-1.1831,-1.1878,-1.196,-1.198,-1.2027,-1.2025,-1.2046,-1.2148,-1.2192,-1.2267,-1.2296,-1.2296,-1.2419,-1.2402,-1.2376,-1.2326,-1.243,-1.2476,-1.2495,-1.2255,-1.2253,-1.2252,-1.2251,0,0,-1.1781,-1.1855,-1.1878,-1.1911,-1.1972,-1.203,-1.2111,-1.2183,-1.2224,-1.2277,-1.2346,-1.2446,-1.2423,-1.2464,-1.2469,-1.2526,-1.2635,-1.2493,-1.2495,-1.252,-1.2775,-1.2796,-1.2817,-1.2626,-1.263,-1.2632,-1.2771,0,-1.1912,-1.2055,-1.2062,-1.2192,-1.226,-1.2244,-1.2315,-1.2361,-1.2382,-1.2444,-1.2468,-1.2539,-1.2501,-1.2527,-1.2582,-1.261,-1.2687,-1.26,-1.2693,-1.2696,-1.2681,-1.2841,-1.2863,-1.2992,-1.2789,-1.2792,-1.2794,0,-1.2085,-1.2142,-1.2278,-1.233,-1.2359,-1.2423,-1.2489,-1.2548,-1.26,-1.2612,-1.2658,-1.2654,-1.2739,-1.2683,-1.2801,-1.2742,-1.278,-1.2799,-1.2804,-1.2815,-1.2753,-1.2858,-1.3033,-1.3053,-1.2822,-1.282,-1.2818,0,-1.2189,-1.2299,-1.2395,-1.2424,-1.2486,-1.2531,-1.256,-1.2608,-1.2651,-1.2709,-1.2737,-1.2805,-1.2843,-1.2896,-1.2911,-1.2869,-1.3029,-1.2974,-1.3043,-1.3043,-1.3079,-1.3077,-1.3264,-1.31,-1.31,-1.31,-1.3099,0,-1.2336,-1.242,-1.2442,-1.2502,-1.2596,-1.2604,-1.2698,-1.2723,-1.2766,-1.2831,-1.2821,-1.2883,-1.2898,-1.2963,-1.2975,-1.3071,-1.3088,-1.3101,-1.3104,-1.3103,-1.3102,-1.313,-1.3122,-1.3105,-1.3104,-1.3103,-1.3102,0,-1.2468,-1.2486,-1.259,-1.264,-1.2654,-1.2722,-1.2765,-1.2823,-1.2842,-1.2924,-1.2944,-1.2975,-1.305,-1.307,-1.316,-1.3169,-1.3283,-1.3276,-1.3265,-1.3266,-1.3334,-1.3328,-1.3547,-1.3577,-1.3392,-1.3393,-1.3395,0,-1.2562,-1.2626,-1.2683,-1.2725,-1.2755,-1.2822,-1.2866,-1.2876,-1.2921,-1.2985,-1.3036,-1.3109,-1.3169,-1.3291,-1.3322,-1.3392,-1.3388,-1.346,-1.3398,-1.3396,-1.3391,-1.3388,-1.3395,-1.3472,-1.3474,-1.3476,-1.3477,0,-1.2727,-1.2732,-1.2794,-1.286,-1.2911,-1.2963,-1.3013,-1.3048,-1.3065,-1.3117,-1.3194,-1.324,-1.3332,-1.3406,-1.3476,-1.3506,-1.3496,-1.3496,-1.3516,-1.3517,-1.3509,-1.3516,-1.3299,-1.3491,-1.349,-1.3489,-1.3488,-1.3488,-1.2844,-1.2901,-1.2949,-1.3019,-1.3057,-1.3104,-1.316,-1.3186,-1.3249,-1.3324,-1.3326,-1.341,-1.346,-1.3553,-1.3587,-1.3653,-1.3632,-1.366,-1.3668,-1.3675,-1.3682,-1.3496,-1.3666,-1.3665,-1.3665,-1.3665,-1.3665,0,-1.301,-1.304,-1.3104,-1.3173,-1.3228,-1.321,-1.3265,-1.3312,-1.3386,-1.3433,-1.3492,-1.358,-1.3652,-1.3688,-1.3759,-1.3805,-1.3802,-1.3824,-1.3822,-1.3829,-1.3696,-1.3673,-1.3825,-1.3825,-1.3825,-1.3825,-1.3825,-1.3825,-1.3103,-1.3199,-1.321,-1.3324,-1.3354,-1.3435,-1.3467,-1.3511,-1.3549,-1.3647,-1.3706,-1.3728,-1.3772,-1.3846,-1.3912,-1.392,-1.3948,-1.3973,-1.3979,-1.3855,-1.3839,-1.3823,-1.3801,-1.3978,-1.3979,-1.4107,-1.4109,-1.4109]},{"header":{"parameterUnit":"m.s-1","parameterCategory":1,"la1":30.2991,"la2":30.254,"lo1":-89.0895,"lo2":-89.0444,"dy":0.0017,"dx":0.0017,"nx":28,"ny":28,"refTime":"2025-04-09T03:00:00:Z","depth":0,"parameterNumber":3,"parameterNumberName":"V-component_of_WINDS"},"data":[0,0,0,0,0,0,0,0,0,0,0,0,0,0,0,0,0,0,0,0,0,0,0,0,0,0,0,0,0,0,0,0,0,0,0,0,0,0,0,0,0,0,0,0,0,0,0,0,0,0,0,0,0,0,0,0,0,0,-4.7483,-4.7484,0,-4.7586,-4.7587,-4.7588,-4.75,-4.7497,-4.7493,-4.7489,-4.7591,-4.7597,-4.7603,0,0,0,0,0,0,0,0,0,0,0,0,0,-4.7207,-4.7212,-4.7483,-4.7484,-4.7486,-4.7586,-4.7587,-4.7588,-4.7501,-4.7496,-4.7492,-4.7488,-4.7589,-4.7596,-4.7603,0,0,0,0,0,0,0,0,0,0,0,0,0,-4.732,-4.7214,-4.7483,-4.7454,-4.7453,-4.7585,-4.7587,-4.7589,-4.7502,-4.7496,-4.7491,-4.7486,-4.7587,-4.7595,-4.7604,-4.777,0,0,-4.7632,-4.7636,0,0,0,0,0,0,0,0,-4.7313,-4.733,-4.7457,-4.7456,-4.7455,-4.7525,-4.7527,-4.7649,-4.7503,-4.7483,-4.7489,-4.7483,-4.7573,-4.7583,-4.7614,-4.7775,-4.7779,-4.7633,-4.7639,-4.7643,-4.7645,0,0,0,0,0,0,0,-4.7306,-4.7325,-4.7524,-4.7459,-4.7458,-4.7434,-4.7445,-4.7549,-4.7557,-4.7484,-4.7478,-4.7492,-4.7571,-4.7606,-4.7616,-4.778,-4.7633,-4.7641,-4.7647,-4.765,-4.808,-4.8086,0,0,0,0,0,0,-4.7301,-4.7319,-4.752,-4.7527,-4.7369,-4.7444,-4.7455,-4.7508,-4.7556,-4.7558,-4.7496,-4.7487,-4.7593,-4.7605,-4.7619,-4.7815,-4.7643,-4.7651,-4.7656,-4.8074,-4.8081,-4.8088,0,0,0,0,0,0,-4.7296,-4.732,-4.7516,-4.7421,-4.7444,-4.7455,-4.7514,-4.7513,-4.7547,-4.7565,-4.7565,-4.753,-4.7589,-4.7606,-4.7733,-4.7817,-4.7655,-4.7664,-4.8067,-4.8076,-4.8084,-4.8209,0,0,0,0,0,0,-4.7288,-4.7319,-4.7383,-4.7423,-4.745,-4.763,-4.7519,-4.7519,-4.7563,-4.7552,-4.7597,-4.7599,-4.7586,-4.772,-4.7742,-4.7827,-4.7671,-4.8059,-4.8071,-4.8082,-4.8198,-4.8221,-4.8242,0,0,0,0,0,-4.7279,-4.7414,-4.7387,-4.7412,-4.7531,-4.7635,-4.765,-4.7634,-4.757,-4.7634,-4.7645,-4.7597,-4.7805,-4.7734,-4.7758,-4.7847,-4.8054,-4.8068,-4.8081,-4.8188,-4.8217,-4.8241,0,0,0,0,0,0,-4.7382,-4.7418,-4.7389,-4.7541,-4.7586,-4.762,-4.7701,-4.7665,-4.7728,-4.7715,-4.769,-4.7701,-4.7834,-4.7853,-4.7773,-4.8008,-4.7919,-4.7938,-4.7992,-4.802,-4.8041,-4.8034,-4.7678,0,0,0,0,0,-4.7423,-4.7506,-4.7533,-4.7664,-4.7688,-4.7691,-4.7736,-4.7719,-4.7764,-4.7782,-4.7803,-4.7847,-4.7921,-4.7971,-4.8041,-4.8199,-4.8207,-4.8273,-4.8294,-4.8312,-4.8329,-4.8413,-4.8442,-4.8131,-4.8131,-4.8131,0,0,-4.7507,-4.7537,-4.7591,-4.7686,-4.7718,-4.7804,-4.7707,-4.7802,-4.7865,-4.7796,-4.7917,-4.7934,-4.7981,-4.8124,-4.8188,-4.8144,-4.8417,-4.833,-4.8344,-4.8351,-4.843,-4.8459,-4.8485,-4.8141,-4.8139,-4.8137,0,0,-4.7705,-4.7737,-4.785,-4.7884,-4.7935,-4.7936,-4.7963,-4.8003,-4.8011,-4.8133,-4.8082,-4.8155,-4.8285,-4.8321,-4.8356,-4.8566,-4.8524,-4.8589,-4.8704,-4.8786,-4.8811,-4.8832,-4.8907,-4.8934,-4.8605,-4.8606,-4.8606,0,-4.7804,-4.7932,-4.7912,-4.8011,-4.8053,-4.7995,-4.8108,-4.8142,-4.8213,-4.8243,-4.8192,-4.8353,-4.8381,-4.8531,-4.8582,-4.8613,-4.8642,-4.8584,-4.8809,-4.883,-4.885,-4.8921,-4.8949,-4.8613,-4.8612,-4.8612,-4.8611,0,-4.805,-4.814,-4.8224,-4.8295,-4.8347,-4.8452,-4.8446,-4.8501,-4.8479,-4.8484,-4.8608,-4.8639,-4.8714,-4.8748,-4.8727,-4.8895,-4.8866,-4.8813,-4.8722,-4.8888,-4.8954,-4.8981,-4.8624,-4.8622,-4.8619,-4.8617,0,0,-4.8317,-4.8375,-4.8407,-4.8437,-4.8488,-4.8557,-4.8658,-4.8732,-4.8779,-4.8829,-4.8913,-4.9023,-4.8974,-4.9014,-4.8996,-4.9069,-4.9232,-4.9006,-4.9007,-4.9047,-4.9418,-4.9458,-4.9489,-4.9204,-4.9209,-4.9213,-4.9413,0,-4.8517,-4.8696,-4.868,-4.8849,-4.893,-4.8876,-4.8964,-4.9004,-4.9011,-4.908,-4.9087,-4.9166,-4.9095,-4.9119,-4.9188,-4.9198,-4.9306,-4.9183,-4.9281,-4.9284,-4.9271,-4.9524,-4.9567,-4.9755,-4.9439,-4.9443,-4.9447,0,-4.8775,-4.8835,-4.9012,-4.905,-4.9083,-4.9164,-4.9229,-4.9296,-4.934,-4.934,-4.9384,-4.9354,-4.9454,-4.9361,-4.9498,-4.9415,-4.9453,-4.9464,-4.9471,-4.948,-4.9376,-4.9539,-4.9814,-4.9843,-4.9487,-4.9484,-4.9481,0,-4.8952,-4.9077,-4.9199,-4.9227,-4.9274,-4.9331,-4.9353,-4.9391,-4.9436,-4.9493,-4.9522,-4.9589,-4.9626,-4.9679,-4.9667,-4.96,-4.9807,-4.9713,-4.9809,-4.9809,-4.9855,-4.9853,-5.014,-4.988,-4.988,-4.9879,-4.9878,0,-4.9177,-4.9288,-4.9279,-4.9354,-4.9475,-4.9455,-4.9575,-4.959,-4.9624,-4.97,-4.9655,-4.9727,-4.9707,-4.9777,-4.9768,-4.9883,-4.99,-4.9902,-4.9898,-4.9906,-4.9906,-4.9931,-4.9918,-4.9886,-4.9885,-4.9883,-4.9882,0,-4.9396,-4.9395,-4.9524,-4.9558,-4.9569,-4.9657,-4.9685,-4.9755,-4.9757,-4.9854,-4.9875,-4.988,-4.996,-4.9953,-5.0043,-5.0036,-5.0179,-5.0159,-5.0165,-5.016,-5.0257,-5.0248,-5.0571,-5.0612,-5.0325,-5.0328,-5.033,0,-4.9541,-4.9624,-4.9667,-4.9715,-4.9741,-4.9819,-4.9865,-4.9847,-4.9896,-4.9951,-5.0014,-5.009,-5.0151,-5.0281,-5.0292,-5.036,-5.0342,-5.045,-5.0352,-5.0357,-5.0343,-5.0339,-5.0346,-5.047,-5.0473,-5.0476,-5.0478,0,-4.9796,-4.9791,-4.986,-4.9928,-4.9984,-5.0037,-5.0085,-5.0126,-5.0112,-5.017,-5.0252,-5.0299,-5.039,-5.0466,-5.0531,-5.0551,-5.0513,-5.0509,-5.0534,-5.0544,-5.0543,-5.0545,-5.0218,-5.0502,-5.0499,-5.0497,-5.0496,-5.0495,-4.9982,-5.0054,-5.0095,-5.0172,-5.0206,-5.0252,-5.0319,-5.033,-5.0399,-5.0473,-5.0458,-5.055,-5.0589,-5.0671,-5.0698,-5.0769,-5.073,-5.0767,-5.0776,-5.0786,-5.0797,-5.0532,-5.078,-5.078,-5.0779,-5.0779,-5.0778,0,-5.0236,-5.0259,-5.0331,-5.0399,-5.046,-5.0418,-5.0468,-5.0521,-5.0603,-5.0644,-5.0704,-5.0797,-5.087,-5.0886,-5.0956,-5.1009,-5.0993,-5.1028,-5.1024,-5.1029,-5.0829,-5.0799,-5.104,-5.104,-5.104,-5.104,-5.104,-5.104,-5.0375,-5.0494,-5.0493,-5.0628,-5.065,-5.0741,-5.0773,-5.0814,-5.0846,-5.0953,-5.1013,-5.1023,-5.1053,-5.1124,-5.1189,-5.1191,-5.1219,-5.1261,-5.1257,-5.1069,-5.1043,-5.1018,-5.0991,-5.1267,-5.1268,-5.1451,-5.1453,-5.1454]}]]